Heath, TX

9:59 AM CDT on September 29, 2016 (GMT -0500)
Rockwall

Weather History for KF46 - July, 2013

Change the Weather History Date:

Monday, July 22, 2013

  Actual Average (KDFW) Record (KDFW)
Temperature  
Mean Temperature 86 °F 86 °F  
Max Temperature 96 °F 96 °F 106 °F (1974)
Min Temperature 76 °F 76 °F 63 °F (1970)
Degree Days  
Heating Degree Days 0 0  
Month to date heating degree days 0  
Since 1 June heating degree days 0  
Since 1 July heating degree days 0  
Cooling Degree Days 21 21  
Month to date cooling degree days 441  
Year to date cooling degree days 1354  
Since 1 June cooling degree days 932  
Growing Degree Days 36 (Base 50)    
Moisture  
Dew Point 72 °F    
Average Humidity 66    
Maximum Humidity 92    
Minimum Humidity 42    
Precipitation  
Precipitation 0.00 in 0.05 in 1.94 in (1944)
Month to date precipitation 1.68  
Year to date precipitation 21.72  
Sea Level Pressure  
Sea Level Pressure 29.92 in    
Wind  
Wind Speed 11 mph (South)    
Max Wind Speed 17 mph    
Max Gust Speed 25 mph    
Visibility 10 miles    
Events      
T = Trace of Precipitation, MM = Missing Value Source: NWS Daily Summary

Daily Weather History Graph

Daily Weather History Graph

Search for Another Location

Airport or City:

Trip Planner

Search our weather history database for the weather conditions in past years. The results will help you decide how hot, cold, wet, or windy it might be!

Date:

Astronomy

Jul. 22, 2013 Rise Set
Actual Time 6:32 AM CDT 8:31 PM CDT
Civil Twilight 6:05 AM CDT 8:58 PM CDT
Nautical Twilight 5:31 AM CDT 9:32 PM CDT
Astronomical Twilight 4:55 AM CDT 10:07 PM CDT
Moon 8:23 PM CDT (7/22) 6:27 AM CDT (7/22)
Length of Visible Light 14h 53m
Length of Day
13h 58m
Full, 100% of the Moon is Illuminated
Jul 22
Full
Jul 22
Full
Jul 29
Last Quarter
Aug 6
New
Aug 14
First Quarter

Hourly Weather History & Observations

Time (CDT) Temp. Heat Index Dew Point Humidity Pressure Visibility Wind Dir Wind Speed Gust Speed Precip Events Conditions
12:15 AM 81.0 °F 85.4 °F 72.3 °F 75% 29.91 in 10.0 mi South 16.1 mph - N/A   Clear
12:35 AM 80.6 °F 84.7 °F 72.1 °F 75% 29.92 in 10.0 mi South 12.7 mph 17.3 mph N/A   Clear
12:55 AM 79.9 °F - 72.5 °F 78% 29.92 in 10.0 mi South 12.7 mph 18.4 mph N/A   Clear
1:15 AM 79.3 °F - 72.5 °F 79% 29.93 in 10.0 mi South 9.2 mph - N/A   Clear
1:35 AM 78.8 °F - 72.7 °F 81% 29.93 in 10.0 mi South 9.2 mph - N/A   Clear
1:55 AM 78.4 °F - 72.9 °F 83% 29.93 in 10.0 mi South 5.8 mph - N/A   Clear
2:15 AM 77.9 °F - 73.0 °F 85% 29.93 in 10.0 mi South 5.8 mph - N/A   Clear
2:35 AM 77.5 °F - 73.4 °F 87% 29.92 in 10.0 mi South 4.6 mph - N/A   Clear
2:55 AM 77.0 °F - 73.4 °F 89% 29.92 in 10.0 mi South 5.8 mph - N/A   Clear
3:15 AM 77.0 °F - 73.4 °F 89% 29.92 in 10.0 mi South 4.6 mph - N/A   Clear
3:35 AM 76.6 °F - 73.4 °F 90% 29.92 in 10.0 mi South 6.9 mph - N/A   Clear
3:55 AM 76.5 °F - 73.4 °F 90% 29.92 in 10.0 mi South 6.9 mph - N/A   Clear
4:15 AM 76.5 °F - 73.6 °F 91% 29.92 in 10.0 mi South 5.8 mph - N/A   Clear
4:35 AM 76.5 °F - 73.8 °F 91% 29.93 in 10.0 mi South 8.1 mph 16.1 mph N/A   Clear
4:55 AM 76.3 °F - 73.9 °F 92% 29.93 in 10.0 mi South 8.1 mph 16.1 mph N/A   Clear
5:15 AM 76.3 °F - 73.9 °F 92% 29.93 in 10.0 mi South 10.4 mph 16.1 mph N/A   Mostly Cloudy
5:35 AM 76.6 °F - 74.3 °F 92% 29.93 in 10.0 mi South 10.4 mph 17.3 mph N/A   Overcast
5:55 AM 77.0 °F - 73.9 °F 90% 29.93 in 10.0 mi South 12.7 mph - N/A   Overcast
6:15 AM 77.0 °F - 73.9 °F 90% 29.93 in 10.0 mi SSW 11.5 mph - N/A   Mostly Cloudy
6:35 AM 77.0 °F - 73.9 °F 90% 29.94 in 10.0 mi South 12.7 mph 18.4 mph N/A   Mostly Cloudy
6:55 AM 76.8 °F - 73.8 °F 90% 29.94 in 10.0 mi SSW 10.4 mph 16.1 mph N/A   Overcast
7:15 AM 77.0 °F - 73.8 °F 90% 29.95 in 10.0 mi SSW 10.4 mph - N/A   Mostly Cloudy
7:35 AM 77.5 °F - 73.8 °F 88% 29.95 in 10.0 mi South 13.8 mph 18.4 mph N/A   Mostly Cloudy
7:55 AM 77.9 °F - 73.8 °F 87% 29.95 in 10.0 mi SSW 13.8 mph 21.9 mph N/A   Overcast
8:35 AM 79.7 °F - 73.9 °F 82% 29.97 in 10.0 mi SSW 12.7 mph 21.9 mph N/A   Overcast
8:55 AM 80.2 °F 84.9 °F 73.8 °F 81% 29.97 in 10.0 mi SSW 17.3 mph 24.2 mph N/A   Overcast
9:35 AM 82.2 °F 88.5 °F 74.3 °F 77% 29.98 in 10.0 mi SSW 13.8 mph 18.4 mph N/A   Overcast
9:55 AM 82.8 °F 89.2 °F 74.3 °F 75% 29.98 in 10.0 mi SSW 11.5 mph 19.6 mph N/A   Mostly Cloudy
10:15 AM 84.2 °F 91.2 °F 73.9 °F 71% 29.97 in 10.0 mi SSW 16.1 mph - N/A   Scattered Clouds
10:35 AM 85.1 °F 92.9 °F 74.1 °F 70% 29.97 in 10.0 mi SSW 13.8 mph - N/A   Scattered Clouds
10:55 AM 85.6 °F 93.0 °F 73.8 °F 67% 29.97 in 10.0 mi SSW 16.1 mph - N/A   Clear
11:15 AM 87.3 °F 95.8 °F 74.3 °F 65% 29.97 in 10.0 mi SSW 12.7 mph 19.6 mph N/A   Scattered Clouds
11:35 AM 88.7 °F 97.7 °F 74.3 °F 62% 29.97 in 10.0 mi SSW 12.7 mph 21.9 mph N/A   Scattered Clouds
12:15 PM 89.8 °F 98.1 °F 73.2 °F 58% 29.97 in 10.0 mi SSW 11.5 mph - N/A   Clear
12:35 PM 90.1 °F 98.3 °F 73.2 °F 57% 29.96 in 10.0 mi SSW 11.5 mph 24.2 mph N/A   Clear
12:55 PM 91.4 °F 100.1 °F 73.2 °F 55% 29.95 in 10.0 mi SW 11.5 mph 17.3 mph N/A   Clear
1:15 PM 91.9 °F 100.7 °F 73.0 °F 54% 29.95 in 10.0 mi SW 13.8 mph 19.6 mph N/A   Clear
1:35 PM 92.3 °F 100.9 °F 73.0 °F 53% 29.95 in 10.0 mi SSW 12.7 mph 20.7 mph N/A   Clear
1:55 PM 93.6 °F 102.5 °F 73.2 °F 51% 29.94 in 10.0 mi South 15.0 mph 20.7 mph N/A   Clear
2:15 PM 94.1 °F 103.1 °F 72.9 °F 50% 29.94 in 10.0 mi SSW 15.0 mph 25.3 mph N/A   Clear
2:35 PM 94.1 °F 101.8 °F 71.6 °F 48% 29.93 in 10.0 mi South 11.5 mph 17.3 mph N/A   Clear
2:55 PM 95.4 °F 105.4 °F 73.2 °F 49% 29.92 in 10.0 mi South 13.8 mph 17.3 mph N/A   Clear
3:15 PM 94.3 °F 102.9 °F 72.5 °F 49% 29.92 in 10.0 mi South 10.4 mph 17.3 mph N/A   Scattered Clouds
3:35 PM 94.8 °F 104.1 °F 72.7 °F 49% 29.92 in 10.0 mi South 10.4 mph - N/A   Scattered Clouds
3:55 PM 95.2 °F 104.2 °F 72.5 °F 48% 29.91 in 10.0 mi South 12.7 mph 20.7 mph N/A   Scattered Clouds
4:15 PM 95.7 °F 104.1 °F 71.6 °F 46% 29.90 in 10.0 mi SSW 11.5 mph 19.6 mph N/A   Scattered Clouds
4:35 PM 95.0 °F 102.5 °F 71.4 °F 46% 29.90 in 10.0 mi SSW 12.7 mph - N/A   Scattered Clouds
4:55 PM 94.6 °F 101.8 °F 71.1 °F 46% 29.90 in 10.0 mi South 11.5 mph 18.4 mph N/A   Scattered Clouds
5:15 PM 95.5 °F 102.4 °F 70.5 °F 44% 29.89 in 10.0 mi SSW 13.8 mph 20.7 mph N/A   Scattered Clouds
5:35 PM 96.1 °F 102.3 °F 69.6 °F 42% 29.89 in 10.0 mi South 9.2 mph 18.4 mph N/A   Scattered Clouds
5:55 PM 95.9 °F 101.9 °F 69.6 °F 42% 29.88 in 10.0 mi SSW 17.3 mph - N/A   Clear
6:15 PM 95.5 °F 101.8 °F 69.6 °F 43% 29.87 in 10.0 mi SSE 13.8 mph - N/A   Clear
6:35 PM 95.7 °F 101.5 °F 69.3 °F 42% 29.87 in 10.0 mi SSW 12.7 mph 19.6 mph N/A   Clear
6:55 PM 95.0 °F 100.7 °F 69.3 °F 43% 29.86 in 10.0 mi South 16.1 mph - N/A   Clear
7:15 PM 94.3 °F 99.3 °F 68.5 °F 43% 29.86 in 10.0 mi South 11.5 mph - N/A   Clear
7:35 PM 93.4 °F 98.1 °F 68.5 °F 44% 29.86 in 10.0 mi South 11.5 mph - N/A   Clear
7:55 PM 92.5 °F 97.4 °F 68.7 °F 46% 29.87 in 10.0 mi South 10.4 mph 16.1 mph N/A   Clear
8:15 PM 91.4 °F 96.3 °F 68.9 °F 48% 29.87 in 10.0 mi South 9.2 mph - N/A   Clear
8:35 PM 89.6 °F 94.3 °F 69.1 °F 51% 29.87 in 10.0 mi South 5.8 mph - N/A   Clear
8:55 PM 88.7 °F 93.0 °F 69.3 °F 52% 29.87 in 10.0 mi SSE 5.8 mph - N/A   Clear
9:15 PM 87.4 °F 92.3 °F 69.8 °F 56% 29.88 in 10.0 mi SSE 5.8 mph - N/A   Clear
9:35 PM 87.1 °F 92.0 °F 70.2 °F 57% 29.88 in 10.0 mi SSE 6.9 mph - N/A   Clear
9:55 PM 86.9 °F 92.1 °F 70.7 °F 58% 29.89 in 10.0 mi South 8.1 mph - N/A   Clear
10:15 PM 86.4 °F 91.4 °F 70.7 °F 59% 29.90 in 10.0 mi SSE 5.8 mph - N/A   Clear
10:35 PM 85.5 °F 90.8 °F 70.9 °F 62% 29.91 in 10.0 mi South 5.8 mph - N/A   Clear
10:55 PM 85.1 °F 90.4 °F 71.1 °F 63% 29.91 in 10.0 mi SSE 4.6 mph - N/A   Clear
11:15 PM 84.6 °F 89.7 °F 71.2 °F 64% 29.91 in 10.0 mi South 4.6 mph - N/A   Clear
11:35 PM 83.5 °F 88.5 °F 71.6 °F 67% 29.91 in 10.0 mi South 5.8 mph - N/A   Clear
11:55 PM 83.7 °F 88.9 °F 71.6 °F 67% 29.93 in 10.0 mi South 5.8 mph - N/A   Clear